LJMBLJPZ

Guest
Details From LJMB - MARIBOR
To LJPZ - PORTOROZ
Flight Number -
Tags generated
Created
Modified
Stats Distance 106 nm / 195 km
Max Altitude 5,100 ft / 1,554 m
Waypoints 3
Social Downloads 0
Likes 0
Share VATSIM

Download

Looking for another format? Having issues loading an existing format? Contact us
Advertisement - Login to hide

Notes

Basic altitude profile: - Ascent Rate: 700ft/min - Ascent Speed: 110kts - Cruise Altitude: 9000ft - Cruise Speed: 150kts - Descent Rate: 1000ft/min - Descent Speed: 100kts

Route

LJMB VALLU LJPZ

ID Type Via Altitude Latitude Longitude Leg Dist Tot Dist Heading (true) Name
O LJMB APT - 0 ft / 0 m 46.48062˚ 15.68602˚ - 0 nm - MARIBOR
VALLU FIX - 5,100 ft / 1,554 m 46.29159˚ 15.33632˚ 18 nm 18 nm 232° / 232° -
O LJPZ APT - 0 ft / 0 m 45.47244˚ 13.61568˚ 87 nm 105 nm 236° / 235° PORTOROZ

Altitude Profile

Advertisement - Login to hide

LJMB

Details ICAO LJMB (MBX)
Name MARIBOR
Region Slovenia
Timezone Europe/Ljubljana (UTC+2.0)
Stats Elevation 876 ft / 267 m (AMSL)
Location 46.480625° 15.686020°
Runways 2
Magnetic Variation 3.985° E

METAR

LJMB 201400Z 01006KT 290V060 9999 FEW033TCU SCT040 22/13 Q1019

Decode

TAF

TAF LJMB 201400Z 2015/2115 36008KT 9999 SCT035 TEMPO 2015/2019 7000 SHRA SCT025TCU BKN030 PROB30 TEMPO 2015/2017 VRB10KT 5000 TSRA SCT025CB BKN045 TEMPO 2015/2018 04007KT TEMPO 2100/2110 BKN030 BECMG 2108/2110 06005KT

Decode

Departure Runways

ID Width Length Bearing (true) Bearing (mag) Surface Threshold Offset Overrun Length
15 148 ft / 45 m 8,160 ft / 2,487 m 146.19° 142.20° Asphalt 0 ft / 0 m 0 ft / 0 m
15L 197 ft / 60 m 3,941 ft / 1,201 m 146.13° 142.14° Grass 0 ft / 0 m 0 ft / 0 m
33 148 ft / 45 m 8,160 ft / 2,487 m 326.20° 322.21° Asphalt 0 ft / 0 m 0 ft / 0 m
33R 197 ft / 60 m 3,941 ft / 1,201 m 326.14° 322.15° Grass 0 ft / 0 m 0 ft / 0 m

LJPZ

Details ICAO LJPZ (POW)
Name PORTOROZ
Region Slovenia
Timezone Europe/Ljubljana (UTC+2.0)
Stats Elevation 7 ft / 2 m (AMSL)
Location 45.472445° 13.615681°
Runways 1
Magnetic Variation 3.492° E

METAR

LJPZ 201400Z 12006KT 100V170 9999 FEW060 27/10 Q1015

Decode

TAF

Not found

Destination Runways

ID Width Length Bearing (true) Bearing (mag) Surface Threshold Offset Overrun Length
15 98 ft / 30 m 3,939 ft / 1,201 m 151.28° 147.79° Asphalt 0 ft / 0 m 0 ft / 0 m
33 98 ft / 30 m 3,939 ft / 1,201 m 331.29° 327.80° Asphalt 751 ft / 229 m 0 ft / 0 m

Popular Alternatives